Meteo Giornale » Osservazioni meteo Svizzera » Saint Gallen-Altenrhein

ore: 06:20 - Osservazioni Meteo Saint Gallen-Altenrhein
Lat. 47° 29' N Lon. 9° 33' E Alt. 398 metri s.l.m.

sereno Europe/Zurich

17 °C

Sereno

Temp. 24 Ore

16 °C

22 °C

Est

7.4 Km/h

Dew point 17 °C

Umidità 100 %

Visibilità  10 Km

Il sole sorge alle ore 05:50

Il sole tramonta alle ore 21:05

Data e Ora Cielo e Fenomeni T °C DP °C Um. % Pres. hPa Vis. km Vento km/h
Oggi h: 06:20 sereno Sereno 17 17 100 1013 10 E 7.4
Oggi h: 05:50 coperto_pioggia Pioggia Debole 17 17 100 1013 10 E 9.3
Oggi h: 05:20 coperto_pioggia Pioggia Debole 17 17 100 1014 10 N 5.5
Oggi h: 04:50 coperto Coperto 18 17 93 1014 10 N 3.7
Oggi h: 04:20 coperto_pioggia Pioggia Debole 18 18 100 1014 10 O 11.1
Oggi h: 03:50 coperto_pioggia Pioggia Debole 17 17 100 1014 10 N 1.8
Oggi h: 03:20 coperto Coperto 17 17 100 1013 10 N 1.8
Oggi h: 02:50 coperto Coperto 17 17 100 1013 10 E 7.4
Oggi h: 02:20 molto_nuvoloso Molto Nuvoloso 17 17 100 1013 10 E 7.4
Oggi h: 01:50 molto_nuvoloso Molto Nuvoloso 17 17 100 1013 10 N 3.7
Oggi h: 01:20 coperto Coperto 17 17 100 1013 10 N 1.8
Oggi h: 00:50 molto_nuvoloso Molto Nuvoloso 16 16 100 1013 10 N 1.8
Oggi h: 00:20 sereno Sereno 16 16 100 1013 10 N 3.7
Ieri h: 23:50 sereno Sereno 16 16 100 1013 10 N 1.8
Ieri h: 23:20 sereno Sereno 16 16 100 1013 10 N 1.8
Ieri h: 22:50 sereno Sereno 17 17 100 1013 10 N 1.8
Ieri h: 22:20 sereno Sereno 18 18 100 1013 10 N 1.8
Ieri h: 21:50 poco_nuvoloso Poco Nuvoloso 18 17 93 1012 10 O 7.4
Ieri h: 21:20 coperto_pioggia Pioggia Debole 18 18 100 1012 10 SO 7.4
Ieri h: 20:50 molto_nuvoloso Molto Nuvoloso 18 18 100 1012 10 E 9.3
Ieri h: 20:20 molto_nuvoloso Molto Nuvoloso 18 18 100 1012 10 N 5.5
Ieri h: 19:50 nuvoloso_piovaschi Debole Rovescio di Pioggia 20 18 88 1012 10 N 5.5
Ieri h: 19:20 molto_nuvoloso Molto Nuvoloso 19 17 88 1012 10 E 13
Ieri h: 18:50 molto_nuvoloso Molto Nuvoloso 20 17 82 1012 10 E 9.3
Ieri h: 17:50 molto_nuvoloso Rovescio nelle Vicinanze 20 16 77 1013 10 N 5.5
Ieri h: 17:20 molto_nuvoloso Molto Nuvoloso 20 17 82 1013 10 N 3.7
Ieri h: 16:50 molto_nuvoloso Molto Nuvoloso 20 17 82 1013 10 N 3.7
Ieri h: 16:20 nuvoloso Nuvoloso 19 18 93 1013 10 N 5.5
Ieri h: 15:50 nuvoloso Nuvoloso 19 18 93 1013 10 N 5.5
Ieri h: 15:20 nuvoloso_temporali Temporale con Pioggia 17 17 100 1013 4 O/SO 20.3
Ieri h: 14:50 nuvoloso_temporali Temporale con Pioggia 18 16 88 1012 7 O/NO 33.3
Ieri h: 14:20 nuvoloso_temporali Temporale nelle Vicinanze 22 20 88 1011 10 O/NO 14.8
Ieri h: 13:50 molto_nuvoloso Molto Nuvoloso 21 19 88 1011 10 O 14.8
Ieri h: 13:20 molto_nuvoloso Molto Nuvoloso 21 19 88 1011 10 O 14.8
Ieri h: 12:50 molto_nuvoloso Molto Nuvoloso 20 19 93 1011 10 NO 9.3
Ieri h: 12:20 molto_nuvoloso Molto Nuvoloso 20 19 93 1011 10 NO 9.3
Ieri h: 11:50 molto_nuvoloso Molto Nuvoloso 21 19 88 1011 10 N 5.5
Ieri h: 11:20 molto_nuvoloso Molto Nuvoloso 21 19 88 1011 10 N 5.5
Ieri h: 10:50 nuvoloso Nuvoloso 20 19 93 1011 10 N 1.8
Ieri h: 10:20 nuvoloso Nuvoloso 20 19 93 1011 10 N 1.8
Ieri h: 09:50 nuvoloso Nuvoloso 19 19 100 1011 10 O 7.4
Ieri h: 09:20 nuvoloso Nuvoloso 19 19 100 1011 10 O 7.4
Ieri h: 08:50 coperto Coperto 19 19 100 1011 10 O 13
Ieri h: 08:20 sereno Sereno 19 19 100 1011 10 O/SO 9.3
Ieri h: 07:50 molto_nuvoloso Molto Nuvoloso 19 19 100 1011 10 E 7.4